OpenBCM V2.0.2 (Linux)

Packet Radio Mailbox

IZ3LSV

[San Dona' di P. JN]

 Login: GUEST





  
CX2SA  > KEPS     07.11.14 02:15l 164 Lines 4278 Bytes #999 (0) @ WW
BID : ORB14310.W
Read: GUEST
Subj: Orbital Elements  14310.WEATHER
Path: IZ3LSV<IQ5KG<IK1NHL<CX2SA
Sent: 141107/0012Z @:CX2SA.SAL.URY.SOAM #:12125 [Salto] FBB7.00e $:ORB14310.W
From: CX2SA@CX2SA.SAL.URY.SOAM
To  : KEPS@AMSAT


HR AMSAT ORBITAL ELEMENTS FOR WEATHER SATELLITES
FROM WA5QGD FORT WORTH,TX November 6, 2014
BID: ORB14310.W
TO ALL RADIO AMATEURS BT

Satellite: MET-2/21
Catalog number: 22782
Epoch time:      14309.87707381
Element set:     218
Inclination:      082.5515 deg
RA of node:       060.8755 deg
Eccentricity:    0.0021726
Arg of perigee:   224.7857 deg
Mean anomaly:     253.6264 deg
Mean motion:   13.83750813 rev/day
Decay rate:       1.14e-06 rev/day^2
Epoch rev:            6971
Checksum:              311

Satellite: OKEAN-4
Catalog number: 23317
Epoch time:      14310.13698682
Element set:     701
Inclination:      082.5365 deg
RA of node:       294.8120 deg
Eccentricity:    0.0019939
Arg of perigee:   354.2317 deg
Mean anomaly:     131.9891 deg
Mean motion:   14.85882558 rev/day
Decay rate:      1.797e-05 rev/day^2
Epoch rev:            8418
Checksum:              331

Satellite: NOAA-14
Catalog number: 23455
Epoch time:      14310.45877750
Element set:     967
Inclination:      098.7705 deg
RA of node:       031.3158 deg
Eccentricity:    0.0009135
Arg of perigee:   001.3897 deg
Mean anomaly:     129.0043 deg
Mean motion:   14.13997451 rev/day
Decay rate:        8.9e-07 rev/day^2
Epoch rev:            2405
Checksum:              303

Satellite: NOAA-15
Catalog number: 25338
Epoch time:      14310.54632567
Element set:     409
Inclination:      098.7623 deg
RA of node:       304.2008 deg
Eccentricity:    0.0011770
Arg of perigee:   095.6349 deg
Mean anomaly:     022.3823 deg
Mean motion:   14.25499106 rev/day
Decay rate:       1.73e-06 rev/day^2
Epoch rev:           85712
Checksum:              296

Satellite: RESURS
Catalog number: 25394
Epoch time:      14309.83725753
Element set:     801
Inclination:      098.4340 deg
RA of node:       268.3775 deg
Eccentricity:    0.0001477
Arg of perigee:   159.5624 deg
Mean anomaly:     257.7088 deg
Mean motion:   14.24411594 rev/day
Decay rate:        3.3e-07 rev/day^2
Epoch rev:           84848
Checksum:              326

Satellite: FENGYUN1
Catalog number: 25730
Epoch time:      14310.13370596
Element set:     290
Inclination:      098.9248 deg
RA of node:       270.4503 deg
Eccentricity:    0.0023106
Arg of perigee:   067.3025 deg
Mean anomaly:     060.8715 deg
Mean motion:   14.12369341 rev/day
Decay rate:      2.218e-05 rev/day^2
Epoch rev:           79755
Checksum:              283

Satellite: OKEAN-0
Catalog number: 25860
Epoch time:      14310.53969502
Element set:     410
Inclination:      098.0637 deg
RA of node:       273.7245 deg
Eccentricity:    0.0001135
Arg of perigee:   084.6316 deg
Mean anomaly:     034.5726 deg
Mean motion:   14.75527412 rev/day
Decay rate:       9.24e-06 rev/day^2
Epoch rev:           82314
Checksum:              283

Satellite: NOAA-16
Catalog number: 26536
Epoch time:      14310.47808769
Element set:     907
Inclination:      098.9736 deg
RA of node:       011.3382 deg
Eccentricity:    0.0011396
Arg of perigee:   139.6879 deg
Mean anomaly:     220.5139 deg
Mean motion:   14.13051606 rev/day
Decay rate:        6.0e-08 rev/day^2
Epoch rev:           72820
Checksum:              312

Satellite: NOAA-17
Catalog number: 27453
Epoch time:      14310.47279142
Element set:     794
Inclination:      098.3231 deg
RA of node:       302.7541 deg
Eccentricity:    0.0012924
Arg of perigee:   115.5968 deg
Mean anomaly:     244.6549 deg
Mean motion:   14.24806847 rev/day
Decay rate:       1.88e-06 rev/day^2
Epoch rev:           64294
Checksum:              325

Satellite: NOAA-18
Catalog number: 28654
Epoch time:      14310.53556547
Element set:     320
Inclination:      099.1650 deg
RA of node:       293.0084 deg
Eccentricity:    0.0013721
Arg of perigee:   221.8295 deg
Mean anomaly:     250.7476 deg
Mean motion:   14.12090871 rev/day
Decay rate:       1.75e-06 rev/day^2
Epoch rev:           48765
Checksum:              304

Satellite: NOAA-19
Catalog number: 33591
Epoch time:      14310.52235608
Element set:     450
Inclination:      098.9618 deg
RA of node:       255.2334 deg
Eccentricity:    0.0015045
Arg of perigee:   079.1685 deg
Mean anomaly:     022.1578 deg
Mean motion:   14.11798519 rev/day
Decay rate:       1.21e-06 rev/day^2
Epoch rev:           29607
Checksum:              305



Read previous mail | Read next mail


 02.05.2026 04:08:24lGo back Go up